User: anonymous   Login
Location: Newark
(48.5667°N, 7.8167°E)
Time: 21:04:02
(UTC+00:00)
Language:

Tiangong - Orbit

View from above orbital plane
View from above orbital plane
View from above satellite
View from above satellite

Ground track
Ground track

The orbit data is extracted from the following two-line orbital elements,

1 48274U 21035A   21271.46953316  .00004911  00000-0  59950-4 0  9993
2 48274  41.4714  13.0225 0001686 341.2278  72.0882 15.61342158 23850
Epoch (UTC): 28 September 2021 11:16:07
Eccentricity: 0.0001686
inclination: 41.4714°
perigee height: 382 km
apogee height: 385 km
right ascension of ascending node: 13.0225°
argument of perigee: 341.2278°
revolutions per day: 15.61342158
mean anomaly at epoch: 72.0882°
orbit number at epoch: 2385

The dashed part of the orbit path shows where the satellite is in the earth's shadow,  

DLR